Tracking 31027 objects as of 19-Jul-2025
HD Live streaming from Space Station
objects crossing your sky now

FARADAY_PHOENIX

Track FARADAY_PHOENIX now!
10-day predictions


NORAD ID: 48924
Int'l Code: 2021-059AX
Perigee: 432.9 km
Apogee: 446.5 km
Inclination: 97.7 °
Period: 93.2 minutes
Semi major axis: 6810 km
RCS: Unknown
Launch date: June 30, 2021
Source: United Kingdom (UK)
Launch site: AIR FORCE EASTERN TEST RANGE (AFETR)
Your satellite tracking list
Your tracking list is empty




NASA's NSSDC Master Catalog

Two Line Element Set (TLE):
1 48924U 21059AX  25199.44412201  .00012638  00000-0  27329-3 0  9994
2 48924  97.6881   7.0375 0009997 102.3390 257.8977 15.44588042225760
Source of the keplerian elements: AFSPC